Weather History for Cheyenne, WY

Change the Weather History Date:

Thursday, February 7, 2013

  Actual Average Record
Temperature  
Mean Temperature 30 °F 28 °F  
Max Temperature 44 °F 39 °F 64 °F (1987)
Min Temperature 15 °F 18 °F -30 °F (1936)
Degree Days  
Heating Degree Days 35 37  
Month to date heating degree days 215 259  
Since 1 July heating degree days 4066 4286  
Cooling Degree Days 0 0  
Month to date cooling degree days 0 0  
Year to date cooling degree days 0 0  
Moisture  
Dew Point 11 °F    
Average Humidity 54    
Maximum Humidity 88    
Minimum Humidity 19    
Precipitation  
Precipitation 0.00 in 0.02 in 0.43 in (1980)
Month to date precipitation T 0.10  
Year to date precipitation 0.24 0.43  
Snow  
Snow 0.00 in 0.20 in 4.50 in (1980)
Month to date snowfall T 1.8  
Since 1 July snowfall 28.8 30.4  
Snow Depth 0.00 in    
Sea Level Pressure  
Sea Level Pressure 30.14 in    
Wind  
Wind Speed 9 mph (SW)    
Max Wind Speed 17 mph    
Max Gust Speed 22 mph    
Visibility 10 miles    
Events      
T = Trace of Precipitation, MM = Missing Value Source: NWS Daily Summary

Daily Weather History Graph

Daily Weather History Graph

Search for Another Location

Airport:

Trip Planner

Search our weather history database for the weather conditions in past years. The results will help you decide how hot, cold, wet, or windy it might be!

Date:

Astronomy

Feb. 07, 2013 Rise Set
Actual Time 7:03 AM MST 5:23 PM MST
Civil Twilight 6:34 AM MST 5:52 PM MST
Nautical Twilight 6:02 AM MST 6:25 PM MST
Astronomical Twilight 5:29 AM MST 6:57 PM MST
Moon 4:46 AM MST (2/7) 2:50 PM MST (2/7)
Length of Visible Light 11h 18m
Length of Day
10h 20m
Waning Crescent, 8% of the Moon is Illuminated
Feb 7
Waning Crescent
Feb 10
New
Feb 17
First Quarter
Feb 25
Full
Mar 4
Last Quarter

Hourly Weather History & Observations

Time (MST) Temp. Windchill Dew Point Humidity Pressure Visibility Wind Dir Wind Speed Gust Speed Precip Events Conditions
12:53 AM 21.9 °F 13.4 °F 18.0 °F 85% 30.10 in 10.0 mi WNW 6.9 mph - N/A   Clear
1:53 AM 19.9 °F 10.1 °F 16.0 °F 85% 30.13 in 10.0 mi WNW 8.1 mph - N/A   Clear
2:53 AM 18.0 °F 9.8 °F 14.0 °F 84% 30.14 in 10.0 mi West 5.8 mph - N/A   Clear
3:53 AM 18.0 °F 7.7 °F 14.0 °F 84% 30.16 in 10.0 mi West 8.1 mph - N/A   Clear
4:53 AM 18.0 °F 9.8 °F 12.0 °F 78% 30.17 in 10.0 mi WNW 5.8 mph - N/A   Clear
5:53 AM 16.0 °F 7.4 °F 9.0 °F 74% 30.21 in 10.0 mi West 5.8 mph - N/A   Clear
6:53 AM 19.0 °F 8.2 °F 10.0 °F 68% 30.22 in 10.0 mi West 9.2 mph - N/A   Clear
7:53 AM 24.1 °F 13.7 °F 10.9 °F 57% 30.20 in 10.0 mi WNW 10.4 mph - N/A   Clear
8:53 AM 28.0 °F 20.8 °F 12.9 °F 53% 30.20 in 10.0 mi West 6.9 mph - N/A   Clear
9:53 AM 34.0 °F 31.0 °F 12.0 °F 40% 30.17 in 10.0 mi Variable 3.5 mph - N/A   Clear
10:53 AM 37.0 °F 31.6 °F 7.0 °F 29% 30.17 in 10.0 mi SSE 6.9 mph - N/A   Clear
11:53 AM 39.9 °F 35.1 °F 3.0 °F 21% 30.14 in 10.0 mi Variable 6.9 mph - N/A   Clear
12:53 PM 42.1 °F 37.7 °F 3.0 °F 20% 30.14 in 10.0 mi SSW 6.9 mph 16.1 mph N/A   Clear
1:53 PM 44.1 °F 37.7 °F 6.1 °F 21% 30.12 in 10.0 mi South 12.7 mph 19.6 mph N/A   Clear
2:53 PM 42.1 °F 34.9 °F 12.0 °F 29% 30.12 in 10.0 mi South 13.8 mph - N/A   Clear
3:53 PM 41.0 °F 33.5 °F 12.0 °F 31% 30.12 in 10.0 mi South 13.8 mph - N/A   Clear
4:53 PM 37.9 °F 30.5 °F 12.0 °F 35% 30.14 in 10.0 mi South 11.5 mph - N/A   Clear
5:53 PM 34.0 °F 26.6 °F 12.9 °F 42% 30.17 in 10.0 mi South 9.2 mph - N/A   Clear
6:53 PM 33.1 °F 24.4 °F 12.0 °F 42% 30.16 in 10.0 mi South 11.5 mph - N/A   Clear
7:53 PM 32.0 °F 21.6 °F 12.0 °F 44% 30.13 in 10.0 mi South 15.0 mph - N/A   Clear
8:53 PM 32.0 °F 24.2 °F 10.9 °F 42% 30.11 in 10.0 mi South 9.2 mph - N/A   Clear
9:53 PM 30.9 °F 21.7 °F 10.9 °F 43% 30.06 in 10.0 mi South 11.5 mph - N/A   Clear
10:53 PM 26.1 °F 16.8 °F 12.0 °F 55% 30.06 in 10.0 mi SSW 9.2 mph - N/A   Clear
11:53 PM 21.9 °F 15.7 °F 10.9 °F 63% 30.06 in 10.0 mi SW 4.6 mph - N/A   Clear